Tracking 25701 objects as of 3-Jul-2022
HD Live streaming from Space Station
objects crossing your sky now

STARLINK-1867

Track STARLINK-1867 now!
10-day predictions
STARLINK-1867 is classified as:


NORAD ID: 47153
Int'l Code: 2020-088AH
Perigee: 553.3 km
Apogee: 555.4 km
Inclination: 53.1 °
Period: 95.6 minutes
Semi major axis: 6925 km
RCS: Unknown
Launch date: November 25, 2020
Source: United States (US)
Launch site: AIR FORCE EASTERN TEST RANGE (AFETR)
aabbcc
Your satellite tracking list
Your tracking list is empty




NASA's NSSDC Master Catalog

Two Line Element Set (TLE):
1 47153U 20088AH  22183.49306530 -.00000582  00000-0 -20172-4 0  9997
2 47153  53.0540 230.1720 0001539  63.2444 296.8702 15.06397101 88862
Source of the keplerian elements: AFSPC